Погода в Воломе

Россия / Республика Карелия     63°44′40″N   31°55′22″E
темп.,
°C
ветер,
м/с
пор.,
м/с
влажн.,
%
обл.,
%
осадки,
мм/ч
давл.,
гПа
погр.,
м
21 января, пт
пт2100:00−5с3990100 0.8 989360
03:00−7с3990100 0.9 991289
06:00−7с4995100 0.1 993345
09:00−7с31095100 0.1 995337
12:00−6с3995100 0.1 998406
15:00−6ссв4894100 0.3 1001403
18:00−8ссв3995100 0.4 1005334
21:00−7ссв4109597 1.1 1009446
22 января, сб
сб2200:00−6ссв41294100 0.3 1011540
03:00−8ссв51394100 0.4 1013492
06:00−9с41396100 0.1 1015403
09:00−10ссв41397100 0.2 1017322
12:00−11ссв31197100 0.1 1018283
15:00−10ссв389686 0.2 1019204
18:00−13с2698100 0.1 1021115
21:00−15с119997 0.2 102218
23 января, вс
вс2300:00−18ююз0010094 0.0 10229
03:00−17ю2210096 0.1 102127
06:00−15ююз2599100 0.0 102174
09:00−10ююз41294100 0.0 1020333
12:00−8юз51490100 0.0 1020488
15:00−7юз61591100 0.1 1020514
18:00−6юз51292100 0.1 1020374
21:00−5юз51493100 0.1 1020413
24 января, пн
пн2400:00−4юз61596100 0.0 1020459
03:00−2юз61497100 0.0 1019433
06:00−1юз71697100 0.0 1018535
09:00−1ююз71897100 0.0 1016579
12:00−1ююз82096100 0.0 1014662
15:00−1ююз92194100 0.0 1011863
18:00−1ююз91892100 0.1 10081060
21:00−1ююз91892100 0.3 10041230
25 января, вт
вт2500:00−1ююз91891100 0.3 10021067
03:000зюз71392100 1.3 10021183
06:00−3зюз4119011 0.1 1004356
09:00−4юз3895100 0.1 1005340
12:00−5с0098100 0.1 100612
15:00−4всв2498100 0.3 1007179
18:00−7св3899100 0.1 1010183
21:00−10ссв269878 0.2 1013101